Погода в Сьюдад-Виктория

Мексика     23°44′37″N   99°08′06″W
темп.,
°C
ветер,
м/с
пор.,
м/с
влажн.,
%
обл.,
%
осадки,
мм/ч
давл.,
гПа
погр.,
м
19 июня, сб
сб1901:00+21зюз1176100 0.0 101420
04:00+21з1171100 0.0 101213
07:00+21ююз1169100 0.0 101211
10:00+23ю1264100 0.0 1013232
13:00+23ююз1268100 0.0 1013126
16:00+22ю1271100 0.1 101287
19:00+24ююв1263100 0.1 1012261
22:00+21юз3375100 0.0 101373
20 июня, вс
вс2001:00+20юз3390100 0.9 101376
04:00+19юз3388100 0.0 101154
07:00+20зюз2284100 0.0 101136
10:00+26в1157100 0.0 1011449
13:00+31всв334359 0.0 10091424
16:00+33вюв224160 0.3 10071949
19:00+31вюв1248100 0.4 1007840
22:00+24юз357568 0.1 1010105
21 июня, пн
пн2101:00+23зюз337954 0.1 101063
04:00+22зюз3377100 0.0 100847
07:00+22зюз227172 0.0 100837
10:00+30всв21505 0.0 1008540
13:00+34всв324237 0.0 10071191
16:00+25з4580100 8.8 1006409
19:00+22зюз5689100 27.2 1008167
22:00+22юз3383100 0.0 100843
22 июня, вт
вт2201:00+22зюз3281100 0.0 101033
04:00+21з11779 0.0 100814
07:00+20ссз2280100 0.0 101124
10:00+24с2373100 0.0 1013485
13:00+29ссв345229 0.2 10121436
16:00+31ссв3443100 0.2 10102190
19:00+24ююв2282100 1.8 101158
22:00+22сз1188100 0.6 101313
23 июня, ср
ср2301:00+21зюз2291100 5.5 101427
04:00+21з119089 0.9 101313
07:00+20зюз228990 1.0 101420
10:00+26юв2267100 0.0 1015534
13:00+31вюв344612 0.0 10131719
16:00+32вюв444427 0.0 10111827
19:00+25вюв457531 0.9 1012252
22:00+22юз239197 4.8 101553